Year,Month,Day,Hour,Minute,Value (Times are PST for temperature in C)
2016,08,20,00,00,19.90
2016,08,20,00,01,19.90
2016,08,20,00,02,19.90
2016,08,20,00,03,19.90
2016,08,20,00,04,19.90
2016,08,20,00,05,19.90
2016,08,20,00,06,19.90
2016,08,20,00,07,19.90
2016,08,20,00,08,19.90
2016,08,20,00,09,19.90
2016,08,20,00,10,19.90
2016,08,20,00,11,19.90
2016,08,20,00,12,19.90
2016,08,20,00,13,19.80
2016,08,20,00,14,19.80
2016,08,20,00,15,19.80
2016,08,20,00,16,19.80
2016,08,20,00,17,19.70
2016,08,20,00,18,19.70
2016,08,20,00,19,19.70
2016,08,20,00,20,19.70
2016,08,20,00,21,19.70
2016,08,20,00,22,19.60
2016,08,20,00,23,19.60
2016,08,20,00,24,19.60
2016,08,20,00,25,19.60
2016,08,20,00,26,19.60
2016,08,20,00,27,19.60
2016,08,20,00,28,19.60
2016,08,20,00,29,19.50
2016,08,20,00,30,19.50
2016,08,20,00,31,19.50
2016,08,20,00,32,19.50
2016,08,20,00,33,19.50
2016,08,20,00,34,19.60
2016,08,20,00,35,19.60
2016,08,20,00,36,19.60
2016,08,20,00,37,19.60
2016,08,20,00,38,19.60
2016,08,20,00,39,19.60
2016,08,20,00,40,19.70
2016,08,20,00,41,19.60
2016,08,20,00,42,19.60
2016,08,20,00,43,19.60
2016,08,20,00,44,19.60
2016,08,20,00,45,19.60
2016,08,20,00,46,19.50
2016,08,20,00,47,19.50
2016,08,20,00,48,19.40
2016,08,20,00,49,19.30
2016,08,20,00,50,19.30
2016,08,20,00,51,19.30
2016,08,20,00,52,19.20
2016,08,20,00,53,19.10
2016,08,20,00,54,19.10
2016,08,20,00,55,19.00
2016,08,20,00,56,19.00
2016,08,20,00,57,19.00
2016,08,20,00,58,18.90
2016,08,20,00,59,18.90
2016,08,20,01,00,18.90
2016,08,20,01,01,18.90
2016,08,20,01,02,18.90
2016,08,20,01,03,18.90
2016,08,20,01,04,18.90
2016,08,20,01,05,18.90
2016,08,20,01,06,18.80
2016,08,20,01,07,18.90
2016,08,20,01,08,18.90
2016,08,20,01,09,18.90
2016,08,20,01,10,18.90
2016,08,20,01,11,18.90
2016,08,20,01,12,18.90
2016,08,20,01,13,18.90
2016,08,20,01,14,18.90
2016,08,20,01,15,18.80
2016,08,20,01,16,18.80
2016,08,20,01,17,18.80
2016,08,20,01,18,18.80
2016,08,20,01,19,18.80
2016,08,20,01,20,18.80
2016,08,20,01,21,18.80
2016,08,20,01,22,18.70
2016,08,20,01,23,18.70
2016,08,20,01,24,18.70
2016,08,20,01,25,18.70
2016,08,20,01,26,18.70
2016,08,20,01,27,18.70
2016,08,20,01,28,18.70
2016,08,20,01,29,18.60
2016,08,20,01,30,18.60
2016,08,20,01,31,18.60
2016,08,20,01,32,18.60
2016,08,20,01,33,18.60
2016,08,20,01,34,18.60
2016,08,20,01,35,18.60
2016,08,20,01,36,18.60
2016,08,20,01,37,18.60
2016,08,20,01,38,18.60
2016,08,20,01,39,18.60
2016,08,20,01,40,18.60
2016,08,20,01,41,18.60
2016,08,20,01,42,18.60
2016,08,20,01,43,18.60
2016,08,20,01,44,18.60
2016,08,20,01,45,18.50
2016,08,20,01,46,18.50
2016,08,20,01,47,18.50
2016,08,20,01,48,18.50
2016,08,20,01,49,18.50
2016,08,20,01,50,18.50
2016,08,20,01,51,18.50
2016,08,20,01,52,18.50
2016,08,20,01,53,18.50
2016,08,20,01,54,18.50
2016,08,20,01,55,18.50
2016,08,20,01,56,18.60
2016,08,20,01,57,18.60
2016,08,20,01,58,18.60
2016,08,20,01,59,18.60
2016,08,20,02,00,18.60
2016,08,20,02,01,18.60
2016,08,20,02,02,18.70
2016,08,20,02,03,18.70
2016,08,20,02,04,18.60
2016,08,20,02,05,18.60
2016,08,20,02,06,18.60
2016,08,20,02,07,18.60
2016,08,20,02,08,18.60
2016,08,20,02,09,18.60
2016,08,20,02,10,18.60
2016,08,20,02,11,18.60
2016,08,20,02,12,18.60
2016,08,20,02,13,18.60
2016,08,20,02,14,18.60
2016,08,20,02,15,18.60
2016,08,20,02,16,18.60
2016,08,20,02,17,18.60
2016,08,20,02,18,18.50
2016,08,20,02,19,18.50
2016,08,20,02,20,18.50
2016,08,20,02,21,18.50
2016,08,20,02,22,18.50
2016,08,20,02,23,18.50
2016,08,20,02,24,18.50
2016,08,20,02,25,18.50
2016,08,20,02,26,18.40
2016,08,20,02,27,18.40
2016,08,20,02,28,18.40
2016,08,20,02,29,18.40
2016,08,20,02,30,18.40
2016,08,20,02,31,18.40
2016,08,20,02,32,18.40
2016,08,20,02,33,18.40
2016,08,20,02,34,18.40
2016,08,20,02,35,18.40
2016,08,20,02,36,18.40
2016,08,20,02,37,18.40
2016,08,20,02,38,18.40
2016,08,20,02,39,18.40
2016,08,20,02,40,18.30
2016,08,20,02,41,18.30
2016,08,20,02,42,18.30
2016,08,20,02,43,18.30
2016,08,20,02,44,18.30
2016,08,20,02,45,18.20
2016,08,20,02,46,18.20
2016,08,20,02,47,18.20
2016,08,20,02,48,18.20
2016,08,20,02,49,18.20
2016,08,20,02,50,18.20
2016,08,20,02,51,18.20
2016,08,20,02,52,18.20
2016,08,20,02,53,18.10
2016,08,20,02,54,18.10
2016,08,20,02,55,18.10
2016,08,20,02,56,18.10
2016,08,20,02,57,18.00
2016,08,20,02,58,18.00
2016,08,20,02,59,17.90
2016,08,20,03,00,17.90
2016,08,20,03,01,17.90
2016,08,20,03,02,17.90
2016,08,20,03,03,17.90
2016,08,20,03,04,17.80
2016,08,20,03,05,17.80
2016,08,20,03,06,17.80
2016,08,20,03,07,17.80
2016,08,20,03,08,17.70
2016,08,20,03,09,17.70
2016,08,20,03,10,17.70
2016,08,20,03,11,17.70
2016,08,20,03,12,17.70
2016,08,20,03,13,17.70
2016,08,20,03,14,17.70
2016,08,20,03,15,17.70
2016,08,20,03,16,17.70
2016,08,20,03,17,17.60
2016,08,20,03,18,17.60
2016,08,20,03,19,17.60
2016,08,20,03,20,17.60
2016,08,20,03,21,17.60
2016,08,20,03,22,17.60
2016,08,20,03,23,17.60
2016,08,20,03,24,17.50
2016,08,20,03,25,17.50
2016,08,20,03,26,17.50
2016,08,20,03,27,17.40
2016,08,20,03,28,17.40
2016,08,20,03,29,17.40
2016,08,20,03,30,17.40
2016,08,20,03,31,17.30
2016,08,20,03,32,17.30
2016,08,20,03,33,17.30
2016,08,20,03,34,17.20
2016,08,20,03,35,17.20
2016,08,20,03,36,17.20
2016,08,20,03,37,17.20
2016,08,20,03,38,17.20
2016,08,20,03,39,17.20
2016,08,20,03,40,17.20
2016,08,20,03,41,17.20
2016,08,20,03,42,17.20
2016,08,20,03,43,17.20
2016,08,20,03,44,17.20
2016,08,20,03,45,17.20
2016,08,20,03,46,17.20
2016,08,20,03,47,17.20
2016,08,20,03,48,17.20
2016,08,20,03,49,17.20
2016,08,20,03,50,17.30
2016,08,20,03,51,17.30
2016,08,20,03,52,17.30
2016,08,20,03,53,17.30
2016,08,20,03,54,17.30
2016,08,20,03,55,17.30
2016,08,20,03,56,17.30
2016,08,20,03,57,17.30
2016,08,20,03,58,17.30
2016,08,20,03,59,17.30
2016,08,20,04,00,17.30
2016,08,20,04,01,17.30
2016,08,20,04,02,17.30
2016,08,20,04,03,17.30
2016,08,20,04,04,17.20
2016,08,20,04,05,17.20
2016,08,20,04,06,17.20
2016,08,20,04,07,17.10
2016,08,20,04,08,17.10
2016,08,20,04,09,17.10
2016,08,20,04,10,17.00
2016,08,20,04,11,17.00
2016,08,20,04,12,16.90
2016,08,20,04,13,16.90
2016,08,20,04,14,16.90
2016,08,20,04,15,16.90
2016,08,20,04,16,16.80
2016,08,20,04,17,16.80
2016,08,20,04,18,16.80
2016,08,20,04,19,16.80
2016,08,20,04,20,16.80
2016,08,20,04,21,16.80
2016,08,20,04,22,16.70
2016,08,20,04,23,16.70
2016,08,20,04,24,16.70
2016,08,20,04,25,16.70
2016,08,20,04,26,16.70
2016,08,20,04,27,16.70
2016,08,20,04,28,16.60
2016,08,20,04,29,16.60
2016,08,20,04,30,16.60
2016,08,20,04,31,16.60
2016,08,20,04,32,16.60
2016,08,20,04,33,16.50
2016,08,20,04,34,16.50
2016,08,20,04,35,16.50
2016,08,20,04,36,16.50
2016,08,20,04,37,16.50
2016,08,20,04,38,16.50
2016,08,20,04,39,16.50
2016,08,20,04,40,16.50
2016,08,20,04,41,16.50
2016,08,20,04,42,16.40
2016,08,20,04,43,16.40
2016,08,20,04,44,16.40
2016,08,20,04,45,16.40
2016,08,20,04,46,16.30
2016,08,20,04,47,16.30
2016,08,20,04,48,16.30
2016,08,20,04,49,16.30
2016,08,20,04,50,16.30
2016,08,20,04,51,16.20
2016,08,20,04,52,16.20
2016,08,20,04,53,16.20
2016,08,20,04,54,16.20
2016,08,20,04,55,16.20
2016,08,20,04,56,16.10
2016,08,20,04,57,16.10
2016,08,20,04,58,16.10
2016,08,20,04,59,16.00
2016,08,20,05,00,16.00
2016,08,20,05,01,16.00
2016,08,20,05,02,15.90
2016,08,20,05,03,15.90
2016,08,20,05,04,15.90
2016,08,20,05,05,15.90
2016,08,20,05,06,15.90
2016,08,20,05,07,15.90
2016,08,20,05,08,15.90
2016,08,20,05,09,15.90
2016,08,20,05,10,15.90
2016,08,20,05,11,15.90
2016,08,20,05,12,15.90
2016,08,20,05,13,15.90
2016,08,20,05,14,15.90
2016,08,20,05,15,15.80
2016,08,20,05,16,15.80
2016,08,20,05,17,15.80
2016,08,20,05,18,15.80
2016,08,20,05,19,15.80
2016,08,20,05,20,15.80
2016,08,20,05,21,15.70
2016,08,20,05,22,15.70
2016,08,20,05,23,15.70
2016,08,20,05,24,15.70
2016,08,20,05,25,15.70
2016,08,20,05,26,15.70
2016,08,20,05,27,15.60
2016,08,20,05,28,15.60
2016,08,20,05,29,15.60
2016,08,20,05,30,15.60
2016,08,20,05,31,15.50
2016,08,20,05,32,15.50
2016,08,20,05,33,15.50
2016,08,20,05,34,15.50
2016,08,20,05,35,15.50
2016,08,20,05,36,15.50
2016,08,20,05,37,15.50
2016,08,20,05,38,15.40
2016,08,20,05,39,15.40
2016,08,20,05,40,15.40
2016,08,20,05,41,15.40
2016,08,20,05,42,15.40
2016,08,20,05,43,15.40
2016,08,20,05,44,15.40
2016,08,20,05,45,15.40
2016,08,20,05,46,15.30
2016,08,20,05,47,15.30
2016,08,20,05,48,15.30
2016,08,20,05,49,15.30
2016,08,20,05,50,15.30
2016,08,20,05,51,15.30
2016,08,20,05,52,15.20
2016,08,20,05,53,15.20
2016,08,20,05,54,15.20
2016,08,20,05,55,15.20
2016,08,20,05,56,15.20
2016,08,20,05,57,15.20
2016,08,20,05,58,15.10
2016,08,20,05,59,15.10
2016,08,20,06,00,15.10
2016,08,20,06,01,15.10
2016,08,20,06,02,15.10
2016,08,20,06,03,15.00
2016,08,20,06,04,15.00
2016,08,20,06,05,15.00
2016,08,20,06,06,15.00
2016,08,20,06,07,15.00
2016,08,20,06,08,15.00
2016,08,20,06,09,15.00
2016,08,20,06,10,15.00
2016,08,20,06,11,15.00
2016,08,20,06,12,15.00
2016,08,20,06,13,15.00
2016,08,20,06,14,15.00
2016,08,20,06,15,15.00
2016,08,20,06,16,15.00
2016,08,20,06,17,15.00
2016,08,20,06,18,15.00
2016,08,20,06,19,15.00
2016,08,20,06,20,15.00
2016,08,20,06,21,15.00
2016,08,20,06,22,15.00
2016,08,20,06,23,15.00
2016,08,20,06,24,15.00
2016,08,20,06,25,15.00
2016,08,20,06,26,14.90
2016,08,20,06,27,14.90
2016,08,20,06,28,14.90
2016,08,20,06,29,14.80
2016,08,20,06,30,14.80
2016,08,20,06,31,14.80
2016,08,20,06,32,14.80
2016,08,20,06,33,14.80
2016,08,20,06,34,14.80
2016,08,20,06,35,14.80
2016,08,20,06,36,14.80
2016,08,20,06,37,14.80
2016,08,20,06,38,14.80
2016,08,20,06,39,14.80
2016,08,20,06,40,14.80
2016,08,20,06,41,14.80
2016,08,20,06,42,14.90
2016,08,20,06,43,14.90
2016,08,20,06,44,14.90
2016,08,20,06,45,14.90
2016,08,20,06,46,14.90
2016,08,20,06,47,14.90
2016,08,20,06,48,15.00
2016,08,20,06,49,14.90
2016,08,20,06,50,15.00
2016,08,20,06,51,14.90
2016,08,20,06,52,15.00
2016,08,20,06,53,15.00
2016,08,20,06,54,15.00
2016,08,20,06,55,15.00
2016,08,20,06,56,15.00
2016,08,20,06,57,15.00
2016,08,20,06,58,15.00
2016,08,20,06,59,15.00
2016,08,20,07,00,15.00
2016,08,20,07,01,15.00
2016,08,20,07,02,15.00
2016,08,20,07,03,15.00
2016,08,20,07,04,15.00
2016,08,20,07,05,15.00
2016,08,20,07,06,15.00
2016,08,20,07,07,15.00
2016,08,20,07,08,15.00
2016,08,20,07,09,15.00
2016,08,20,07,10,15.00
2016,08,20,07,11,15.00
2016,08,20,07,12,15.00
2016,08,20,07,13,15.00
2016,08,20,07,14,15.00
2016,08,20,07,15,15.00
2016,08,20,07,16,15.00
2016,08,20,07,17,15.00
2016,08,20,07,18,15.00
2016,08,20,07,19,15.00
2016,08,20,07,20,15.00
2016,08,20,07,21,15.00
2016,08,20,07,22,15.00
2016,08,20,07,23,15.10
2016,08,20,07,24,15.20
2016,08,20,07,25,15.20
2016,08,20,07,26,15.20
2016,08,20,07,27,15.20
2016,08,20,07,28,15.30
2016,08,20,07,29,15.30
2016,08,20,07,30,15.30
2016,08,20,07,31,15.30
2016,08,20,07,32,15.30
2016,08,20,07,33,15.30
2016,08,20,07,34,15.30
2016,08,20,07,35,15.30
2016,08,20,07,36,15.40
2016,08,20,07,37,15.40
2016,08,20,07,38,15.40
2016,08,20,07,39,15.40
2016,08,20,07,40,15.50
2016,08,20,07,41,15.50
2016,08,20,07,42,15.60
2016,08,20,07,43,15.60
2016,08,20,07,44,15.60
2016,08,20,07,45,15.70
2016,08,20,07,46,15.70
2016,08,20,07,47,15.70
2016,08,20,07,48,15.70
2016,08,20,07,49,15.80
2016,08,20,07,50,15.80
2016,08,20,07,51,15.80
2016,08,20,07,52,15.80
2016,08,20,07,53,15.90
2016,08,20,07,54,15.90
2016,08,20,07,55,16.00
2016,08,20,07,56,16.00
2016,08,20,07,57,16.10
2016,08,20,07,58,16.10
2016,08,20,07,59,16.20
2016,08,20,08,00,16.20
2016,08,20,08,01,16.30
2016,08,20,08,02,16.30
2016,08,20,08,03,16.40
2016,08,20,08,04,16.50
2016,08,20,08,05,16.50
2016,08,20,08,06,16.60
2016,08,20,08,07,16.60
2016,08,20,08,08,16.70
2016,08,20,08,09,16.80
2016,08,20,08,10,16.80
2016,08,20,08,11,16.90
2016,08,20,08,12,16.90
2016,08,20,08,13,17.00
2016,08,20,08,14,17.10
2016,08,20,08,15,17.10
2016,08,20,08,16,17.20
2016,08,20,08,17,17.20
2016,08,20,08,18,17.30
2016,08,20,08,19,17.30
2016,08,20,08,20,17.30
2016,08,20,08,21,17.40
2016,08,20,08,22,17.40
2016,08,20,08,23,17.50
2016,08,20,08,24,17.50
2016,08,20,08,25,17.60
2016,08,20,08,26,17.60
2016,08,20,08,27,17.70
2016,08,20,08,28,17.70
2016,08,20,08,29,17.80
2016,08,20,08,30,17.90
2016,08,20,08,31,18.00
2016,08,20,08,32,18.00
2016,08,20,08,33,18.10
2016,08,20,08,34,18.20
2016,08,20,08,35,18.20
2016,08,20,08,36,18.30
2016,08,20,08,37,18.40
2016,08,20,08,38,18.50
2016,08,20,08,39,18.50
2016,08,20,08,40,18.60
2016,08,20,08,41,18.60
2016,08,20,08,42,18.70
2016,08,20,08,43,18.80
2016,08,20,08,44,18.80
2016,08,20,08,45,18.90
2016,08,20,08,46,19.00
2016,08,20,08,47,19.10
2016,08,20,08,48,19.20
2016,08,20,08,49,19.20
2016,08,20,08,50,19.30
2016,08,20,08,51,19.40
2016,08,20,08,52,19.40
2016,08,20,08,53,19.50
2016,08,20,08,54,19.50
2016,08,20,08,55,19.60
2016,08,20,08,56,19.70
2016,08,20,08,57,19.70
2016,08,20,08,58,19.80
2016,08,20,08,59,19.90
2016,08,20,09,00,20.00
2016,08,20,09,01,20.10
2016,08,20,09,02,20.10
2016,08,20,09,03,20.20
2016,08,20,09,04,20.30
2016,08,20,09,05,20.40
2016,08,20,09,06,20.40
2016,08,20,09,07,20.50
2016,08,20,09,08,20.60
2016,08,20,09,09,20.70
2016,08,20,09,10,20.70
2016,08,20,09,11,20.80
2016,08,20,09,12,20.90
2016,08,20,09,13,20.90
2016,08,20,09,14,21.00
2016,08,20,09,15,21.10
2016,08,20,09,16,21.20
2016,08,20,09,17,21.30
2016,08,20,09,18,21.40
2016,08,20,09,19,21.50
2016,08,20,09,20,21.60
2016,08,20,09,21,21.70
2016,08,20,09,22,21.80
2016,08,20,09,23,21.80
2016,08,20,09,24,21.90
2016,08,20,09,25,22.00
2016,08,20,09,26,22.10
2016,08,20,09,27,22.20
2016,08,20,09,28,22.30
2016,08,20,09,29,22.30
2016,08,20,09,30,22.40
2016,08,20,09,31,22.50
2016,08,20,09,32,22.50
2016,08,20,09,33,22.60
2016,08,20,09,34,22.70
2016,08,20,09,35,22.80
2016,08,20,09,36,22.90
2016,08,20,09,37,22.90
2016,08,20,09,38,22.90
2016,08,20,09,39,23.00
2016,08,20,09,40,23.00
2016,08,20,09,41,23.10
2016,08,20,09,42,23.20
2016,08,20,09,43,23.30
2016,08,20,09,44,23.30
2016,08,20,09,45,23.40
2016,08,20,09,46,23.50
2016,08,20,09,47,23.60
2016,08,20,09,48,23.60
2016,08,20,09,49,23.70
2016,08,20,09,50,23.80
2016,08,20,09,51,23.80
2016,08,20,09,52,23.90
2016,08,20,09,53,24.00
2016,08,20,09,54,24.10
2016,08,20,09,55,24.10
2016,08,20,09,56,24.20
2016,08,20,09,57,24.20
2016,08,20,09,58,24.30
2016,08,20,09,59,24.30
2016,08,20,10,00,24.40
2016,08,20,10,01,24.50
2016,08,20,10,02,24.50
2016,08,20,10,03,24.60
2016,08,20,10,04,24.70
2016,08,20,10,05,24.70
2016,08,20,10,06,24.80
2016,08,20,10,07,24.80
2016,08,20,10,08,24.90
2016,08,20,10,09,25.00
2016,08,20,10,10,25.10
2016,08,20,10,11,25.10
2016,08,20,10,12,25.20
2016,08,20,10,13,25.30
2016,08,20,10,14,25.40
2016,08,20,10,15,25.50
2016,08,20,10,16,25.60
2016,08,20,10,17,25.60
2016,08,20,10,18,25.70
2016,08,20,10,19,25.70
2016,08,20,10,20,25.70
2016,08,20,10,21,25.70
2016,08,20,10,22,25.70
2016,08,20,10,23,25.70
2016,08,20,10,24,25.70
2016,08,20,10,25,25.70
2016,08,20,10,26,25.70
2016,08,20,10,27,25.80
2016,08,20,10,28,25.80
2016,08,20,10,29,25.90
2016,08,20,10,30,25.90
2016,08,20,10,31,26.00
2016,08,20,10,32,26.10
2016,08,20,10,33,26.10
2016,08,20,10,34,26.20
2016,08,20,10,35,26.20
2016,08,20,10,36,26.10
2016,08,20,10,37,26.10
2016,08,20,10,38,26.10
2016,08,20,10,39,26.10
2016,08,20,10,40,26.20
2016,08,20,10,41,26.20
2016,08,20,10,42,26.20
2016,08,20,10,43,26.30
2016,08,20,10,44,26.30
2016,08,20,10,45,26.30
2016,08,20,10,46,26.30
2016,08,20,10,47,26.40
2016,08,20,10,48,26.50
2016,08,20,10,49,26.60
2016,08,20,10,50,26.70
2016,08,20,10,51,26.80
2016,08,20,10,52,26.80
2016,08,20,10,53,26.90
2016,08,20,10,54,26.90
2016,08,20,10,55,26.90
2016,08,20,10,56,26.90
2016,08,20,10,57,26.90
2016,08,20,10,58,27.00
2016,08,20,10,59,27.00
2016,08,20,11,00,27.10
2016,08,20,11,01,27.10
2016,08,20,11,02,27.10
2016,08,20,11,03,27.10
2016,08,20,11,04,27.10
2016,08,20,11,05,27.10
2016,08,20,11,06,27.20
2016,08,20,11,07,27.30
2016,08,20,11,08,27.30
2016,08,20,11,09,27.30
2016,08,20,11,10,27.30
2016,08,20,11,11,27.40
2016,08,20,11,12,27.40
2016,08,20,11,13,27.40
2016,08,20,11,14,27.40
2016,08,20,11,15,27.50
2016,08,20,11,16,27.50
2016,08,20,11,17,27.60
2016,08,20,11,18,27.60
2016,08,20,11,19,27.60
2016,08,20,11,20,27.60
2016,08,20,11,21,27.60
2016,08,20,11,22,27.70
2016,08,20,11,23,27.70
2016,08,20,11,24,27.70
2016,08,20,11,25,27.70
2016,08,20,11,26,27.70
2016,08,20,11,27,27.70
2016,08,20,11,28,27.70
2016,08,20,11,29,27.70
2016,08,20,11,30,27.70
2016,08,20,11,31,27.70
2016,08,20,11,32,27.80
2016,08,20,11,33,27.80
2016,08,20,11,34,27.80
2016,08,20,11,35,27.80
2016,08,20,11,36,27.70
2016,08,20,11,37,27.70
2016,08,20,11,38,27.70
2016,08,20,11,39,27.80
2016,08,20,11,40,27.80
2016,08,20,11,41,27.80
2016,08,20,11,42,27.90
2016,08,20,11,43,28.00
2016,08,20,11,44,28.00
2016,08,20,11,45,28.10
2016,08,20,11,46,28.10
2016,08,20,11,47,28.20
2016,08,20,11,48,28.20
2016,08,20,11,49,28.20
2016,08,20,11,50,28.20
2016,08,20,11,51,28.20
2016,08,20,11,52,28.20
2016,08,20,11,53,28.10
2016,08,20,11,54,28.10
2016,08,20,11,55,28.10
2016,08,20,11,56,28.10
2016,08,20,11,57,28.10
2016,08,20,11,58,28.10
2016,08,20,11,59,28.10
2016,08,20,12,00,28.10
2016,08,20,12,01,28.10
2016,08,20,12,02,28.00
2016,08,20,12,03,28.00
2016,08,20,12,04,28.00
2016,08,20,12,05,28.00
2016,08,20,12,06,28.00
2016,08,20,12,07,28.00
2016,08,20,12,08,28.10
2016,08,20,12,09,28.10
2016,08,20,12,10,28.20
2016,08,20,12,11,28.20
2016,08,20,12,12,28.10
2016,08,20,12,13,28.10
2016,08,20,12,14,28.10
2016,08,20,12,15,28.00
2016,08,20,12,16,28.10
2016,08,20,12,17,28.10
2016,08,20,12,18,28.10
2016,08,20,12,19,28.10
2016,08,20,12,20,28.10
2016,08,20,12,21,28.20
2016,08,20,12,22,28.20
2016,08,20,12,23,28.30
2016,08,20,12,24,28.40
2016,08,20,12,25,28.40
2016,08,20,12,26,28.40
2016,08,20,12,27,28.50
2016,08,20,12,28,28.50
2016,08,20,12,29,28.50
2016,08,20,12,30,28.50
2016,08,20,12,31,28.50
2016,08,20,12,32,28.50
2016,08,20,12,33,28.50
2016,08,20,12,34,28.50
2016,08,20,12,35,28.40
2016,08,20,12,36,28.40
2016,08,20,12,37,28.30
2016,08,20,12,38,28.30
2016,08,20,12,39,28.30
2016,08,20,12,40,28.30
2016,08,20,12,41,28.40
2016,08,20,12,42,28.40
2016,08,20,12,43,28.40
2016,08,20,12,44,28.50
2016,08,20,12,45,28.60
2016,08,20,12,46,28.60
2016,08,20,12,47,28.60
2016,08,20,12,48,28.60
2016,08,20,12,49,28.60
2016,08,20,12,50,28.50
2016,08,20,12,51,28.50
2016,08,20,12,52,28.50
2016,08,20,12,53,28.40
2016,08,20,12,54,28.40
2016,08,20,12,55,28.40
2016,08,20,12,56,28.30
2016,08,20,12,57,28.30
2016,08,20,12,58,28.20
2016,08,20,12,59,28.20
2016,08,20,13,00,28.10
2016,08,20,13,01,28.00
2016,08,20,13,02,27.90
2016,08,20,13,03,27.90
2016,08,20,13,04,27.90
2016,08,20,13,05,27.90
2016,08,20,13,06,27.90
2016,08,20,13,07,27.90
2016,08,20,13,08,28.00
2016,08,20,13,09,28.00
2016,08,20,13,10,28.10
2016,08,20,13,11,28.10
2016,08,20,13,12,28.10
2016,08,20,13,13,28.10
2016,08,20,13,14,28.10
2016,08,20,13,15,28.10
2016,08,20,13,16,28.10
2016,08,20,13,17,28.20
2016,08,20,13,18,28.20
2016,08,20,13,19,28.20
2016,08,20,13,20,28.30
2016,08,20,13,21,28.20
2016,08,20,13,22,28.20
2016,08,20,13,23,28.20
2016,08,20,13,24,28.20
2016,08,20,13,25,28.30
2016,08,20,13,26,28.30
2016,08,20,13,27,28.30
2016,08,20,13,28,28.30
2016,08,20,13,29,28.40
2016,08,20,13,30,28.40
2016,08,20,13,31,28.50
2016,08,20,13,32,28.60
2016,08,20,13,33,28.60
2016,08,20,13,34,28.60
2016,08,20,13,35,28.60
2016,08,20,13,36,28.60
2016,08,20,13,37,28.70
2016,08,20,13,38,28.70
2016,08,20,13,39,28.70
2016,08,20,13,40,28.70
2016,08,20,13,41,28.70
2016,08,20,13,42,28.70
2016,08,20,13,43,28.60
2016,08,20,13,44,28.60
2016,08,20,13,45,28.60
2016,08,20,13,46,28.60
2016,08,20,13,47,28.50
2016,08,20,13,48,28.60
2016,08,20,13,49,28.60
2016,08,20,13,50,28.70
2016,08,20,13,51,28.80
2016,08,20,13,52,28.90
2016,08,20,13,53,29.00
2016,08,20,13,54,29.10
2016,08,20,13,55,29.10
2016,08,20,13,56,29.10
2016,08,20,13,57,29.00
2016,08,20,13,58,28.90
2016,08,20,13,59,28.80
2016,08,20,14,00,28.80
2016,08,20,14,01,28.80
2016,08,20,14,02,28.80
2016,08,20,14,03,28.90
2016,08,20,14,04,28.90
2016,08,20,14,05,29.00
2016,08,20,14,06,29.10
2016,08,20,14,07,29.20
2016,08,20,14,08,29.30
2016,08,20,14,09,29.30
2016,08,20,14,10,29.40
2016,08,20,14,11,29.50
2016,08,20,14,12,29.60
2016,08,20,14,13,29.70
2016,08,20,14,14,29.80
2016,08,20,14,15,29.80
2016,08,20,14,16,29.80
2016,08,20,14,17,29.80
2016,08,20,14,18,29.80
2016,08,20,14,19,29.80
2016,08,20,14,20,29.70
2016,08,20,14,21,29.70
2016,08,20,14,22,29.60
2016,08,20,14,23,29.50
2016,08,20,14,24,29.40
2016,08,20,14,25,29.40
2016,08,20,14,26,29.40
2016,08,20,14,27,29.50
2016,08,20,14,28,29.60
2016,08,20,14,29,29.70
2016,08,20,14,30,29.80
2016,08,20,14,31,29.80
2016,08,20,14,32,29.80
2016,08,20,14,33,29.80
2016,08,20,14,34,29.90
2016,08,20,14,35,29.90
2016,08,20,14,36,30.00
2016,08,20,14,37,30.10
2016,08,20,14,38,30.20
2016,08,20,14,39,30.30
2016,08,20,14,40,30.40
2016,08,20,14,41,30.50
2016,08,20,14,42,30.60
2016,08,20,14,43,30.60
2016,08,20,14,44,30.60
2016,08,20,14,45,30.60
2016,08,20,14,46,30.60
2016,08,20,14,47,30.60
2016,08,20,14,48,30.60
2016,08,20,14,49,30.60
2016,08,20,14,50,30.60
2016,08,20,14,51,30.60
2016,08,20,14,52,30.50
2016,08,20,14,53,30.40
2016,08,20,14,54,30.40
2016,08,20,14,55,30.40
2016,08,20,14,56,30.40
2016,08,20,14,57,30.40
2016,08,20,14,58,30.40
2016,08,20,14,59,30.50
2016,08,20,15,00,30.60
2016,08,20,15,01,30.60
2016,08,20,15,02,30.50
2016,08,20,15,03,30.40
2016,08,20,15,04,30.30
2016,08,20,15,05,30.20
2016,08,20,15,06,30.20
2016,08,20,15,07,30.20
2016,08,20,15,08,30.20
2016,08,20,15,09,30.20
2016,08,20,15,10,30.10
2016,08,20,15,11,30.10
2016,08,20,15,12,30.10
2016,08,20,15,13,30.10
2016,08,20,15,14,30.10
2016,08,20,15,15,30.00
2016,08,20,15,16,30.00
2016,08,20,15,17,30.00
2016,08,20,15,18,29.90
2016,08,20,15,19,29.90
2016,08,20,15,20,29.90
2016,08,20,15,21,30.00
2016,08,20,15,22,30.00
2016,08,20,15,23,30.10
2016,08,20,15,24,30.10
2016,08,20,15,25,30.20
2016,08,20,15,26,30.20
2016,08,20,15,27,30.30
2016,08,20,15,28,30.30
2016,08,20,15,29,30.40
2016,08,20,15,30,30.40
2016,08,20,15,31,30.40
2016,08,20,15,32,30.40
2016,08,20,15,33,30.40
2016,08,20,15,34,30.40
2016,08,20,15,35,30.40
2016,08,20,15,36,30.40
2016,08,20,15,37,30.40
2016,08,20,15,38,30.40
2016,08,20,15,39,30.30
2016,08,20,15,40,30.30
2016,08,20,15,41,30.20
2016,08,20,15,42,30.20
2016,08,20,15,43,30.20
2016,08,20,15,44,30.10
2016,08,20,15,45,30.10
2016,08,20,15,46,30.10
2016,08,20,15,47,30.00
2016,08,20,15,48,30.00
2016,08,20,15,49,30.00
2016,08,20,15,50,30.00
2016,08,20,15,51,30.00
2016,08,20,15,52,30.00
2016,08,20,15,53,30.00
2016,08,20,15,54,30.00
2016,08,20,15,55,30.00
2016,08,20,15,56,30.00
2016,08,20,15,57,30.10
2016,08,20,15,58,30.10
2016,08,20,15,59,30.10
2016,08,20,16,00,30.20
2016,08,20,16,01,30.20
2016,08,20,16,02,30.20
2016,08,20,16,03,30.20
2016,08,20,16,04,30.20
2016,08,20,16,05,30.20
2016,08,20,16,06,30.30
2016,08,20,16,07,30.30
2016,08,20,16,08,30.30
2016,08,20,16,09,30.30
2016,08,20,16,10,30.30
2016,08,20,16,11,30.30
2016,08,20,16,12,30.40
2016,08,20,16,13,30.40
2016,08,20,16,14,30.40
2016,08,20,16,15,30.50
2016,08,20,16,16,30.50
2016,08,20,16,17,30.40
2016,08,20,16,18,30.40
2016,08,20,16,19,30.30
2016,08,20,16,20,30.30
2016,08,20,16,21,30.20
2016,08,20,16,22,30.20
2016,08,20,16,23,30.10
2016,08,20,16,24,30.10
2016,08,20,16,25,30.10
2016,08,20,16,26,30.10
2016,08,20,16,27,30.20
2016,08,20,16,28,30.20
2016,08,20,16,29,30.10
2016,08,20,16,30,30.10
2016,08,20,16,31,30.10
2016,08,20,16,32,30.10
2016,08,20,16,33,30.10
2016,08,20,16,34,30.00
2016,08,20,16,35,29.90
2016,08,20,16,36,29.90
2016,08,20,16,37,29.80
2016,08,20,16,38,29.80
2016,08,20,16,39,29.80
2016,08,20,16,40,29.80
2016,08,20,16,41,29.80
2016,08,20,16,42,29.80
2016,08,20,16,43,29.80
2016,08,20,16,44,29.90
2016,08,20,16,45,29.90
2016,08,20,16,46,29.90
2016,08,20,16,47,29.90
2016,08,20,16,48,29.90
2016,08,20,16,49,29.90
2016,08,20,16,50,29.90
2016,08,20,16,51,29.90
2016,08,20,16,52,29.90
2016,08,20,16,53,29.90
2016,08,20,16,54,29.90
2016,08,20,16,55,29.90
2016,08,20,16,56,29.90
2016,08,20,16,57,29.90
2016,08,20,16,58,29.80
2016,08,20,16,59,29.80
2016,08,20,17,00,29.90
2016,08,20,17,01,29.90
2016,08,20,17,02,29.90
2016,08,20,17,03,29.90
2016,08,20,17,04,29.90
2016,08,20,17,05,30.00
2016,08,20,17,06,30.00
2016,08,20,17,07,30.00
2016,08,20,17,08,30.00
2016,08,20,17,09,30.00
2016,08,20,17,10,30.10
2016,08,20,17,11,30.00
2016,08,20,17,12,30.00
2016,08,20,17,13,29.90
2016,08,20,17,14,29.90
2016,08,20,17,15,29.80
2016,08,20,17,16,29.70
2016,08,20,17,17,29.70
2016,08,20,17,18,29.70
2016,08,20,17,19,29.70